EHI
0 0 0 0 0 0 0 0 0 0 0 0 0 0 0 0 0 0 0 0 0 0 0 0 0 0 0 0 0 0 0 0 0 0 0 0 0 0 0 0 0 0 0
0 0 0 0 0 0 0 0 0 0 0 0 0 0 0 0 0 0 0 0 0 0 0 0 0 0 0 0 0 0 0 0 0 0 0 0 0 0 0 0 0 0 0
0 0 0 0 0 0 0 0 0 0 0 0 0 0 0 0 0 0 0 0 0 0 0 0 0 0 0 0 0 0 0 0 0 0 0 0 0 0 0 0 0 0 0
0 0 0 0 0 0 0 0 0 0 0 0 0 0 0 0 0 0 0 0 0 0 0 0 0 0 0 0 0 0 0 0 0 0 0 0 0 0 0 0 0 0 0
0 0 0 0 0 0 0 0 0 0 0 0 0 0 0 0 0 0 0 0 0 0 0 0 0 0 0 0 0 0 0 0 0 0 0 0 0 0 0 0 0 0 0
0 0 0 0 0 0 0 0 0 0 0 0 0 0 0 0 0 0 0 0 0 0 0 0 0 0 0 0 0 0 0 0 0 0 0 0 0 0 0 0 0 0 0
0 0 0 0 0 0 0 0 0 0 0 0 0 0 0 0 0 0 0 0 0 0 0 0 0 0 0 0 0 0 0 0 0 0 0 0 0 0 0 0 0 0 0
0 0 0 0 0 0 0 0 0 0 0 0 0 0 0 0 0 0 0 0 0 0 0 0 0 0 0 0 0 0 0 0 0 0 0 0 0 0 0 0 0 0 0
0 0 0 0 0 0 0 0 0 0 0 0 0 0 0 0 0 0 0 0 0 0 0 0 0 0 0 0 0 0 0 0 0 0 0 0 0 0 0 0 0 0 0
0 0 0 0 0 0 0 0 0 0 0 0 0 0 0 0 0 0 0 0 0 0 0 0 0 0 0 0 0 0 0 0 0 0 0 0 0 0 0 0 0 0 0
0 0 0 0 0 0 0 0 0 0 0 0 0 0 0 0 0 0 0 0 0 0 0 0 0 0 0 0 0 0 0 0 0 0 0 0 0 0 0 0 0 0 0
0 0 0 0 0 0 0 0 0 0 0 0 0 0 0 0 0 0 0 0 0 0 0 0 0 0 0 0 0 0 0 0 0 0 0 0 0 0 0 0 0 0 0
0 0 0 0 0 0 0 0 0 0 0 0 0 0 0 0 0 0 0 0 0 0 0 0 0 0 0 0 0 0 0 0 0 0 0 0 0 0 0 0 0 0 0
0 0 0 0 0 0 0 0 0 0 0 0 0 0 0 0 0 0 0 0 0 0 0 0 0 0 0 0 0 0 0 0 0 0 0 0 0 0 0 0 0 0 0
0 0 0 0 0 0 0 0 0 0 0 0 0 0 0 0 0 0 0 0 0 0 0 0 0 0 0 0 0 0 0 0 0 0 0 0 0 0 0 0 0 0 0
0 0 0 0 0 0 0 0 0 0 0 0 0 0 0 0 0 0 0 0 0 0 0 0 0 0 0 0 0 0 0 0 0 0 0 0 0 0 0 0 0 0 0
0 0 0 0 0 0 0 0 0 0 0 0 0 0 0 0 0 0 0 0 0 0 0 0 0 0 0 0 0 0 0 0 0 0 0 0 0 0 0 0 0 0 0
0 0 0 0 0 0 0 0 0 0 0 0 0 0 0 0 0 0 0 0 0 0 0 0 0 0 0 0 0 0 0 0 0 0 0 0 0 0 0 0 0 0 0
0 0 0 0 0 0 0 0 0 0 0 0 0 0 0 0 0 0 0 0 0 0 0 0 0 0 0 0 0 0 0 0 0 0 0 0 0 0 0 0 0 0 0
0 0 0 0 0 0 0 0 0 0 0 0 0 0 0 0 0 0 0 0 0 0 0 0 0 0 0 0 0 0 0 0 0 0 0 0 0 0 0 0 0 0 0
0 0 0 0 0 0 0 0 0 0 0 0 0 0 0 0 0 0 0 0 0 0 0 0 0 0 0 0 0 0 0 0 0 0 0 0 0 0 0 0 0 0 0
0 0 0 0 0 0 0 0 0 0 0 0 0 0 0 0 0 0 0 0 0 0 0 0 0 0 0 0 0 0 0 0 0 0 0 0 0 0 0 0 0 0 0
0 0 0 0 0 0 0 0 0 0 0 0 0 0 0 0 0 0 0 0 0 0 0 0 0 0 0 0 0 0 0 0 0 0 0 0 0 0 0 0 0 0 0
0 0 0 0 0 0 0 0 0 0 0 0 0 0 0 0 0 0 0 0 0 0 0 0 0 0 0 0 0 0 0 0 0 0 0 0 0 0 0 0 0 0 0
0 0 0 0 0 0 0 0 0 0 0 0 0 0 0 0 0 0 0 0 0 0 0 0 0 0 0 0 0 0 0 0 0 0 0 0 0 0 0 0 0 0 0
0 0 0 0 0 0 0 0 0 0 0 0 0 0 0 0 0 0 0 0 0 0 0 0 0 0 0 0 0 0 0 0 0 0 0 0 0 0 0 0 0 0 0
Wind_Speed
5 6 6 6 7 9 10 10 10 9 8 7 7 8 8 8 8 9 11 11 11 10 9 6 7 7 6 7 9 8 10 9 9 11 11 12 13 12 10 10 11 14 15
8 8 8 9 10 10 11 12 12 12 11 9 8 9 9 9 8 8 10 11 11 10 8 9 7 7 7 8 9 9 8 8 9 10 12 10 11 8 11 13 13 14 14
11 11 10 10 10 11 11 11 13 13 13 12 9 9 8 7 7 8 7 10 10 10 9 9 8 8 7 7 9 9 9 9 10 9 8 9 10 14 10 12 13 15 14
12 11 11 11 11 10 11 12 13 13 12 10 10 11 9 8 7 6 6 7 9 10 9 9 9 8 7 8 8 9 9 9 9 8 7 9 13 12 13 12 12 15 15
12 12 11 11 10 10 10 11 13 13 12 12 11 11 9 8 6 5 7 6 7 8 9 9 8 8 7 8 9 9 9 8 8 8 9 11 10 13 15 17 14 13 13
12 12 11 10 10 9 9 10 12 12 12 11 11 11 10 8 7 7 6 5 5 6 9 8 8 8 7 8 9 9 10 8 9 8 8 9 9 11 13 17 18 16 14
13 13 13 11 11 10 9 9 11 12 11 11 10 10 9 8 8 6 6 6 5 6 9 9 9 8 8 9 9 9 9 9 9 9 9 9 10 10 11 14 16 19 17
13 13 12 11 11 10 10 10 10 10 10 9 9 8 8 5 5 7 6 6 5 6 8 9 9 9 9 9 9 8 9 8 10 11 11 9 10 10 11 12 15 18 18
14 13 12 11 11 10 9 9 10 10 9 8 8 8 7 7 6 6 6 5 6 6 8 9 9 10 10 10 10 8 10 10 10 11 12 11 10 10 11 11 12 15 19
14 13 12 10 10 9 9 9 9 9 8 7 7 5 6 6 6 5 6 6 7 7 8 9 10 10 11 11 11 10 10 12 12 11 13 13 11 11 11 12 12 13 15
15 13 11 11 10 10 9 9 9 8 7 7 6 6 6 6 5 5 6 6 7 8 9 10 10 11 11 12 11 12 13 14 14 14 14 15 15 13 12 12 13 13 14
14 13 12 11 11 10 9 8 8 7 7 6 5 5 5 5 5 5 6 7 8 8 9 9 10 11 11 12 13 13 14 15 16 16 16 16 14 17 14 13 15 14 15
14 13 12 12 11 10 9 8 7 7 6 5 4 4 4 5 5 6 6 7 8 9 9 9 10 11 12 13 13 14 15 16 16 16 17 17 17 17 15 16 16 14 14
14 13 13 12 11 10 9 8 7 6 5 4 3 3 4 5 5 6 7 7 8 9 9 10 11 12 12 13 13 15 17 17 17 17 16 17 17 17 18 16 17 16 17
14 14 13 12 11 10 9 7 7 6 4 3 2 3 4 5 5 6 7 8 8 9 10 11 11 12 12 11 15 17 17 18 18 17 17 17 18 22 19 17 18 19 17
14 14 13 13 12 10 9 7 6 5 3 2 2 3 4 5 6 7 8 8 9 10 10 11 12 13 11 17 21 20 17 17 18 17 17 17 18 20 25 27 27 26 22
13 14 14 12 11 9 8 7 6 5 3 1 2 4 5 6 7 8 8 9 10 11 12 12 13 15 16 19 22 23 19 18 16 17 17 15 16 22 19 23 28 26 28
12 12 12 11 10 9 8 7 6 4 2 1 2 4 5 7 8 9 9 10 10 11 12 13 14 15 15 19 21 24 19 17 16 17 18 19 20 19 23 23 23 23 22
9 11 11 11 10 9 8 7 5 3 1 2 3 5 6 8 9 10 10 11 11 12 12 13 14 15 16 18 21 23 16 15 17 17 18 20 20 25 30 26 25 25 22
10 11 11 11 10 8 7 6 4 2 1 3 4 5 7 8 9 10 11 11 11 12 13 13 13 15 15 18 21 22 13 15 16 16 17 21 23 28 32 25 24 24 22
11 12 11 9 8 8 6 5 3 1 2 3 5 6 7 8 10 10 10 11 11 13 13 14 13 13 14 17 20 22 15 15 17 16 15 15 27 32 34 30 21 24 27
11 11 10 9 7 6 5 3 1 1 2 4 6 7 8 8 8 10 11 11 12 13 13 13 13 10 12 15 18 23 23 23 19 17 16 18 30 33 32 25 25 32 28
10 9 9 9 7 5 3 1 1 2 4 5 7 8 9 9 9 10 11 11 11 10 11 12 12 12 11 13 20 23 26 27 19 16 24 29 31 28 21 23 29 25 16
9 8 9 8 6 5 3 1 1 2 4 7 8 8 9 9 9 8 8 9 10 10 11 12 13 13 13 12 13 14 16 20 18 17 21 26 25 21 22 21 18 14 15
8 7 7 6 6 5 3 1 1 3 6 7 8 8 8 9 9 9 8 10 10 11 14 13 13 14 14 17 26 22 17 18 18 20 15 14 14 15 15 15 15 15 15
8 7 7 6 6 4 2 2 3 5 6 7 7 6 7 8 8 10 10 10 12 17 19 20 19 16 20 27 29 29 29 30 28 20 14 14 14 15 16 16 16 16 15
Wind_Direction
98 81 72 68 69 64 62 64 72 86 101 107 107 99 89 83 74 64 58 56 52 48 42 33 27 15 12 3 354 346 332 327 330 314 310 300 288 291 289 297 300 296 292
122 99 89 78 72 70 70 70 71 76 80 86 88 91 91 81 75 68 58 52 49 44 36 30 22 14 1 1 356 352 336 329 331 324 317 311 310 304 325 308 296 297 298
131 117 101 88 81 72 72 75 77 80 85 93 99 102 98 92 77 65 57 47 44 40 36 27 17 9 2 356 350 348 340 329 325 332 321 319 316 321 295 309 310 304 304
135 125 115 102 89 82 81 82 83 83 84 89 91 91 87 80 69 59 58 54 44 37 28 21 12 5 359 353 348 346 334 329 325 327 320 311 306 305 305 304 304 308 306
143 133 123 112 101 92 87 87 86 82 79 81 85 86 83 83 76 66 54 46 43 36 23 15 8 2 356 352 345 340 337 328 325 321 314 310 307 299 304 306 306 301 299
149 138 131 124 112 105 98 95 91 84 80 80 79 80 83 79 71 56 42 33 30 25 21 7 4 360 355 347 342 336 334 329 323 315 309 308 304 305 304 303 306 304 303
158 152 148 138 127 119 110 105 99 92 87 84 81 80 78 73 61 46 34 24 17 14 9 2 357 356 348 341 338 330 326 320 317 310 310 305 298 300 300 299 302 303 302
167 162 153 143 135 127 121 114 106 101 96 90 85 79 73 65 56 43 31 23 12 7 359 353 348 345 340 335 334 320 319 315 311 308 309 301 299 301 301 301 303 302 302
171 165 155 148 140 134 127 122 116 110 103 96 90 79 69 61 52 39 29 20 11 356 352 346 341 338 335 332 327 318 316 316 312 310 307 301 300 298 297 295 294 296 299
172 165 159 150 141 132 128 126 121 113 106 96 84 74 64 54 44 34 26 14 3 355 346 343 338 334 330 328 323 316 316 313 311 306 302 302 300 300 296 293 291 288 288
173 167 159 149 141 138 138 133 126 119 110 98 89 76 62 46 35 27 17 4 356 349 344 337 331 327 326 324 319 316 315 311 308 306 304 304 303 300 298 296 291 287 286
171 165 156 150 148 147 145 140 133 123 111 99 86 71 55 36 24 18 8 356 349 343 337 328 323 323 322 321 317 315 313 310 308 307 306 305 305 302 300 297 295 293 291
167 162 159 158 155 152 149 142 134 124 115 101 83 65 43 23 12 7 358 349 342 333 329 324 322 321 320 316 313 314 312 309 307 307 307 306 306 304 303 302 298 296 297
168 167 165 163 159 155 150 143 133 127 118 102 75 46 24 8 0 356 347 339 332 325 323 321 319 317 316 312 317 317 312 309 308 306 305 306 306 306 306 303 302 303 301
171 171 169 165 160 154 149 141 136 132 125 107 67 28 3 356 350 345 336 327 321 318 317 316 316 316 313 316 322 315 312 310 308 307 307 306 306 302 302 303 305 304 300
173 172 170 167 163 156 149 145 141 135 129 106 37 4 349 348 343 334 325 318 315 316 317 316 316 315 313 318 317 317 312 309 308 309 309 308 305 306 306 306 304 302 300
172 172 172 167 157 151 148 148 142 138 132 85 6 352 345 338 331 322 316 315 315 316 315 316 316 314 313 316 318 317 314 309 308 309 309 308 308 310 308 308 307 305 301
167 167 162 152 145 142 142 138 137 140 137 39 356 349 336 327 321 316 315 316 315 313 312 314 313 310 310 316 317 317 314 310 308 308 308 307 309 310 312 311 310 307 306
152 150 146 142 141 142 141 142 146 150 143 6 348 338 327 320 316 316 316 315 312 311 312 311 310 309 311 315 316 319 315 309 310 309 308 308 308 311 315 314 312 310 309
132 134 135 136 138 139 145 154 155 154 32 353 331 322 317 313 311 310 310 310 309 308 309 307 308 308 308 311 316 320 314 312 312 310 309 308 310 313 316 317 315 312 312
131 133 135 136 136 141 151 153 145 66 9 327 315 313 311 308 304 304 306 307 307 307 308 309 310 308 308 313 317 321 319 315 313 312 312 312 315 316 318 319 315 311 313
135 138 136 131 134 143 148 142 111 37 334 315 309 307 306 304 299 304 306 309 311 310 312 312 312 310 313 316 318 319 318 316 313 311 312 313 316 318 320 319 314 316 317
143 143 139 135 137 138 138 136 72 353 319 308 304 302 301 300 301 305 309 312 313 312 313 312 313 317 319 317 318 319 318 318 315 310 311 314 317 320 319 316 318 319 315
149 147 144 145 146 147 150 138 355 319 302 297 299 300 301 304 308 308 306 311 313 312 312 314 316 318 317 318 320 318 318 319 316 314 315 317 318 319 317 318 318 317 314
151 152 154 156 154 157 167 185 290 288 286 290 293 298 300 304 307 306 306 307 303 305 309 311 313 314 314 315 317 318 319 318 316 320 318 319 321 320 320 319 318 318 317
153 154 159 159 156 165 191 234 259 266 277 286 296 302 303 305 306 309 306 297 295 302 303 303 304 305 305 311 316 319 319 320 323 325 319 320 320 319 320 320 319 318 318